TimeCDT,TemperatureF,Dew PointF,Humidity,Sea Level PressureIn,VisibilityMPH,Wind Direction,Wind SpeedMPH,Gust SpeedMPH,PrecipitationIn,Events,Conditions,WindDirDegrees,DateUTC
12:55 AM,57.0,54.0,89,30.02,10.0,Calm,Calm,-,N/A,,Clear,0,2012-11-01 05:55:00
1:55 AM,55.9,53.1,90,30.03,10.0,Calm,Calm,-,N/A,,Clear,0,2012-11-01 06:55:00
2:55 AM,54.0,52.0,93,30.03,10.0,NNE,4.6,-,N/A,,Clear,20,2012-11-01 07:55:00
3:55 AM,52.0,51.1,97,30.03,10.0,North,3.5,-,N/A,,Clear,10,2012-11-01 08:55:00
4:55 AM,53.1,51.1,93,30.02,10.0,Calm,Calm,-,N/A,,Clear,0,2012-11-01 09:55:00
5:55 AM,52.0,50.0,93,30.03,10.0,Calm,Calm,-,N/A,,Clear,0,2012-11-01 10:55:00
6:55 AM,52.0,50.0,93,30.03,10.0,Calm,Calm,-,N/A,,Clear,0,2012-11-01 11:55:00
7:55 AM,52.0,50.0,93,30.04,10.0,Calm,Calm,-,N/A,,Clear,0,2012-11-01 12:55:00
8:55 AM,60.1,55.0,83,30.07,10.0,Calm,Calm,-,N/A,,Clear,0,2012-11-01 13:55:00
9:55 AM,68.0,57.9,70,30.08,10.0,SE,3.5,-,N/A,,Clear,130,2012-11-01 14:55:00
10:55 AM,73.9,59.0,59,30.08,10.0,Calm,Calm,-,N/A,,Clear,0,2012-11-01 15:55:00
11:55 AM,75.9,57.0,52,30.07,10.0,Calm,Calm,-,N/A,,Clear,0,2012-11-01 16:55:00
12:55 PM,80.1,55.9,43,30.04,10.0,WSW,5.8,-,N/A,,Clear,240,2012-11-01 17:55:00
1:55 PM,82.9,52.0,34,30.01,10.0,Variable,4.6,-,N/A,,Clear,0,2012-11-01 18:55:00
2:55 PM,84.0,48.0,28,29.99,10.0,West,5.8,-,N/A,,Clear,280,2012-11-01 19:55:00
3:55 PM,84.0,51.1,32,29.98,10.0,Calm,Calm,-,N/A,,Clear,0,2012-11-01 20:55:00
4:55 PM,82.9,53.1,36,29.97,10.0,SW,4.6,-,N/A,,Partly Cloudy,220,2012-11-01 21:55:00
5:55 PM,81.0,53.1,38,29.97,10.0,WNW,3.5,-,N/A,,Clear,300,2012-11-01 22:55:00
6:55 PM,70.0,55.9,61,29.99,10.0,Calm,Calm,-,N/A,,Clear,0,2012-11-01 23:55:00
7:55 PM,68.0,55.9,65,30.00,10.0,Calm,Calm,-,N/A,,Clear,0,2012-11-02 00:55:00
8:55 PM,64.9,55.9,73,30.01,10.0,Calm,Calm,-,N/A,,Clear,0,2012-11-02 01:55:00
9:55 PM,63.0,55.9,78,30.01,10.0,Calm,Calm,-,N/A,,Clear,0,2012-11-02 02:55:00
10:55 PM,66.9,57.0,70,30.01,10.0,Calm,Calm,-,N/A,,Clear,0,2012-11-02 03:55:00
11:55 PM,66.0,59.0,78,30.01,10.0,SW,3.5,-,N/A,,Clear,220,2012-11-02 04:55:00